This demonstration page uses our WeatherBlox Daily Observations layout. Learn more.

Hourly Observations for March 20, 2015

Temp ( °F °C ) Dew Point ( °F °C ) Humidity (%) Winds ( mph kmh ) Pressure ( in mb ) Visibility ( mi km ) Precip ( " mm )
12:15 am 00:15 Clear 37 2.6 19 -7 50 50 Calm 30.18 1022 10 16.0934 0 0
12:35 am 00:35 Clear 36 2 19 -7 52 52 Calm 30.21 1023 10 16.0934 0 0
12:55 am 00:55 Clear 33 0.8 19 -7.5 54 54 NNE 8 13 30.21 1023 10 16.0934 0 0
1:15 am 01:15 Clear 37 2.9 19 -7.3 47 47 NNE 9 15 30.21 1023 10 16.0934 0 0
1:35 am 01:35 Clear 35 1.6 19 -7.2 52 52 N 8 13 30.21 1023 10 16.0934 0 0
1:55 am 01:55 Clear 35 1.5 19 -7.1 53 53 N 5 7 30.21 1023 10 16.0934 0 0
2:15 am 02:15 Clear 32 0.2 19 -7.5 57 57 Calm 30.24 1024 10 16.0934 0 0
2:35 am 02:35 Clear 32 0 19 -7.1 59 59 N 3 6 30.24 1024 10 16.0934 0 0
2:55 am 02:55 Clear 31 -0.6 19 -7.3 61 61 N 3 6 30.24 1024 10 16.0934 0 0
3:15 am 03:15 Clear 30 -1.2 18 -7.6 62 62 N 3 6 30.24 1024 10 16.0934 0 0
3:35 am 03:35 Clear 29 -1.4 19 -7.5 64 64 NNW 3 6 30.24 1024 10 16.0934 0 0
3:55 am 03:55 Clear 31 -0.6 20 -6.7 64 64 Calm 30.24 1024 10 16.0934 0 0
4:15 am 04:15 Clear 31 -0.4 20 -6.7 63 63 WNW 3 6 30.24 1024 10 16.0934 0 0
4:35 am 04:35 Clear 29 -1.4 20 -6.9 67 67 Calm 30.24 1024 10 16.0934 0 0
4:55 am 04:55 Clear 28 -2.5 19 -7.4 69 69 WNW 3 6 30.24 1024 10 16.0934 0 0
5:15 am 05:15 Clear 29 -1.9 19 -7.1 68 68 Calm 30.24 1024 10 16.0934 0 0
5:35 am 05:35 Clear 29 -1.6 20 -6.6 69 69 Calm 30.24 1024 10 16.0934 0 0
5:55 am 05:55 Clear 28 -2 20 -6.9 69 69 Calm 30.24 1024 10 16.0934 0 0
6:15 am 06:15 Clear 28 -2.3 20 -6.9 71 71 W 3 6 30.24 1024 10 16.0934 0 0
6:35 am 06:35 Clear 28 -2.5 20 -6.9 72 72 W 3 6 30.24 1024 10 16.0934 0 0
6:55 am 06:55 Clear 29 -1.8 20 -6.5 71 71 W 3 6 30.24 1024 10 16.0934 0 0
7:15 am 07:15 Clear 27 -3 20 -6.8 75 75 W 3 6 30.27 1025 10 16.0934 0 0
7:35 am 07:35 Clear 26 -3.1 19 -7.2 74 74 W 5 7 30.27 1025 10 16.0934 0 0
7:55 am 07:55 Sunny 27 -3 20 -6.5 77 77 W 6 9 30.27 1025 10 16.0934 0 0
8:15 am 08:15 Sunny 27 -2.8 20 -6.4 77 77 W 5 7 30.27 1025 10 16.0934 0 0
8:35 am 08:35 Sunny 31 -0.8 24 -4.7 75 75 W 6 9 30.24 1024 10 16.0934 0 0
8:55 am 08:55 Sunny 38 3.5 27 -2.7 64 64 WSW 6 9 30.18 1022 10 16.0934 0 0
9:15 am 09:15 Sunny 43 6.2 28 -2.3 55 55 SW 3 6 30.18 1022 10 16.0934 0 0
9:35 am 09:35 Sunny 47 8.4 29 -1.7 49 49 SW 8 13 30.15 1021 10 16.0934 0 0
9:55 am 09:55 Sunny 50 10.1 28 -2 43 43 SW 10 17 30.15 1021 10 16.0934 0 0
10:15 am 10:15 Sunny 53 11.5 26 -3.2 36 36 SW 13 20 30.12 1020 10 16.0934 0 0
10:35 am 10:35 Sunny 55 12.6 25 -4.1 31 31 SW 12 19 30.12 1020 10 16.0934 0 0
10:55 am 10:55 Sunny 55 12.8 24 -4.5 30 30 SW 10 17 30.12 1020 10 16.0934 0 0
11:15 am 11:15 Sunny 57 13.7 24 -4.2 29 29 SW 13 20 30.09 1019 10 16.0934 0 0
11:35 am 11:35 Sunny 59 15 25 -4 27 27 SW 12 19 30.09 1019 10 16.0934 0 0
11:55 am 11:55 Sunny 60 15.8 26 -3.4 27 27 SW 13 20 30.09 1019 10 16.0934 0 0
12:15 pm 12:15 Sunny 61 16.1 28 -2.5 28 28 SW 9 15 30.09 1019 10 16.0934 0 0
12:35 pm 12:35 Sunny 64 17.6 30 -0.9 29 29 WSW 13 20 30.06 1018 10 16.0934 0 0
12:55 pm 12:55 Sunny 66 19 31 -0.7 27 27 W 20 31 30.06 1018 10 16.0934 0 0
1:15 pm 13:15 Sunny 67 19.5 29 -1.7 24 24 W 17 28 30.06 1018 10 16.0934 0 0
1:35 pm 13:35 Sunny 68 19.9 27 -2.9 21 21 W 15 24 30.03 1017 10 16.0934 0 0
1:55 pm 13:55 Sunny 69 20.4 26 -3.1 20 20 WSW 13 20 30.03 1017 10 16.0934 0 0
2:15 pm 14:15 Sunny 69 20.8 24 -4.4 18 18 W 15 24 30 1016 10 16.0934 0 0
2:35 pm 14:35 Sunny 71 21.6 22 -5.3 16 16 WSW 13 20 29.97 1015 10 16.0934 0 0
2:55 pm 14:55 Sunny 71 21.8 22 -5.7 15 15 W 15 24 29.97 1015 10 16.0934 0 0
3:15 pm 15:15 Sunny 72 22 21 -6.2 15 15 W 14 22 29.97 1015 10 16.0934 0 0
3:35 pm 15:35 Sunny 73 22.5 20 -6.4 14 14 WSW 17 28 29.97 1015 10 16.0934 0 0
3:55 pm 15:55 Sunny 72 22.4 20 -6.7 14 14 SW 16 26 29.97 1015 10 16.0934 0 0
4:15 pm 16:15 Sunny 73 22.6 18 -7.8 12 12 WSW 10 17 29.97 1015 10 16.0934 0 0
4:35 pm 16:35 Sunny 73 23 17 -8.3 12 12 SW 13 20 29.94 1014 10 16.0934 0 0
4:55 pm 16:55 Sunny 74 23.2 16 -8.9 11 11 W 16 26 29.94 1014 10 16.0934 0 0
5:15 pm 17:15 Sunny 73 23 16 -8.9 11 11 W 18 30 29.94 1014 10 16.0934 0 0
5:35 pm 17:35 Sunny 73 23 16 -8.7 11 11 WSW 14 22 29.94 1014 10 16.0934 0 0
5:55 pm 17:55 Sunny 73 23 16 -9 11 11 WSW 15 24 29.94 1014 10 16.0934 0 0
6:15 pm 18:15 Sunny 73 22.7 16 -9 11 11 W 12 19 29.94 1014 10 16.0934 0 0
6:35 pm 18:35 Sunny 73 22.5 15 -9.3 11 11 W 12 19 29.94 1014 10 16.0934 0 0
6:55 pm 18:55 Sunny 72 22 15 -9.6 11 11 W 12 19 29.94 1014 10 16.0934 0 0
7:15 pm 19:15 Sunny 69 20.8 15 -9.4 12 12 WSW 8 13 29.94 1014 10 16.0934 0 0
7:35 pm 19:35 Sunny 68 19.8 14 -10 12 12 WSW 7 11 29.94 1014 10 16.0934 0 0
7:55 pm 19:55 Clear 63 17.4 13 -10.4 14 14 SW 6 9 29.97 1015 10 16.0934 0 0
8:15 pm 20:15 Clear 62 16.5 14 -10 15 15 SW 7 11 29.97 1015 10 16.0934 0 0
8:35 pm 20:35 Clear 59 14.9 15 -9.4 18 18 SW 7 11 30 1016 10 16.0934 0 0
8:55 pm 20:55 Clear 58 14.5 16 -9 19 19 SW 8 13 30.03 1017 10 16.0934 0 0
9:15 pm 21:15 Clear 56 13.6 16 -8.9 20 20 SW 8 13 30.03 1017 10 16.0934 0 0
9:35 pm 21:35 Clear 56 13.6 16 -8.8 20 20 SW 9 15 30.03 1017 10 16.0934 0 0
9:55 pm 21:55 Clear 54 12.4 17 -8.6 22 22 SW 7 11 30.06 1018 10 16.0934 0 0
10:15 pm 22:15 Clear 53 11.5 17 -8.1 25 25 SW 8 13 30.06 1018 10 16.0934 0 0
10:35 pm 22:35 Clear 54 12.2 18 -7.7 24 24 SW 9 15 30.06 1018 10 16.0934 0 0
10:55 pm 22:55 Clear 54 12.2 20 -6.6 27 27 SW 9 15 30.06 1018 10 16.0934 0 0
11:15 pm 23:15 Clear 55 12.5 21 -6.1 27 27 SW 8 13 30.06 1018 10 16.0934 0 0
11:35 pm 23:35 Clear 53 11.8 20 -6.6 27 27 NW 7 11 30.09 1019 10 16.0934 0 0
11:55 pm 23:55 Clear 51 10.7 20 -6.6 29 29 WNW 6 9 30.09 1019 10 16.0934 0 0

Powered by AerisWeather